TimeMDT,TemperatureF,Dew PointF,Humidity,Sea Level PressureIn,VisibilityMPH,Wind Direction,Wind SpeedMPH,Gust SpeedMPH,PrecipitationIn,Events,Conditions,WindDirDegrees,DateUTC
12:53 AM,42.1,33.1,70,29.95,10.0,ESE,8.1,-,N/A,,Clear,120,2013-03-27 06:53:00
1:53 AM,41.0,33.1,73,29.96,10.0,SE,9.2,-,N/A,,Clear,130,2013-03-27 07:53:00
2:53 AM,42.1,33.1,70,29.95,10.0,SE,9.2,-,N/A,,Clear,130,2013-03-27 08:53:00
3:53 AM,43.0,33.1,68,29.94,10.0,ESE,11.5,-,N/A,,Overcast,120,2013-03-27 09:53:00
4:53 AM,44.1,33.1,65,29.93,10.0,ESE,11.5,-,N/A,,Overcast,120,2013-03-27 10:53:00
5:53 AM,43.0,33.1,68,29.94,10.0,SE,10.4,-,N/A,,Overcast,130,2013-03-27 11:53:00
6:53 AM,44.1,33.1,65,29.93,10.0,SE,10.4,-,N/A,,Overcast,130,2013-03-27 12:53:00
7:53 AM,39.9,32.0,73,29.97,10.0,SSW,10.4,-,N/A,,Mostly Cloudy,210,2013-03-27 13:53:00
8:53 AM,44.1,34.0,68,29.98,10.0,NE,4.6,-,N/A,,Mostly Cloudy,50,2013-03-27 14:53:00
9:53 AM,48.0,34.0,58,29.98,10.0,SE,6.9,-,N/A,,Mostly Cloudy,130,2013-03-27 15:53:00
10:53 AM,52.0,33.1,49,29.99,10.0,SE,9.2,-,N/A,,Overcast,130,2013-03-27 16:53:00
11:53 AM,57.0,34.0,42,29.98,10.0,ESE,6.9,-,N/A,,Overcast,120,2013-03-27 17:53:00
12:53 PM,59.0,33.1,38,29.96,10.0,SE,8.1,-,N/A,,Mostly Cloudy,140,2013-03-27 18:53:00
1:53 PM,61.0,30.9,32,29.94,10.0,East,6.9,-,N/A,,Scattered Clouds,90,2013-03-27 19:53:00
2:53 PM,62.1,30.0,30,29.92,10.0,South,10.4,-,N/A,,Mostly Cloudy,190,2013-03-27 20:53:00
3:53 PM,64.0,28.9,27,29.91,10.0,South,9.2,-,N/A,,Scattered Clouds,180,2013-03-27 21:53:00
4:53 PM,61.0,32.0,34,29.91,10.0,South,4.6,-,N/A,,Overcast,190,2013-03-27 22:53:00
5:53 PM,61.0,32.0,34,29.91,10.0,West,4.6,-,0.00,,Overcast,260,2013-03-27 23:53:00
6:53 PM,62.1,30.9,31,29.90,10.0,SSE,4.6,-,N/A,,Overcast,150,2013-03-28 00:53:00
7:53 PM,60.1,32.0,35,29.91,10.0,SSE,4.6,-,N/A,,Overcast,160,2013-03-28 01:53:00
8:53 PM,55.0,34.0,45,29.92,10.0,SE,5.8,-,N/A,,Overcast,140,2013-03-28 02:53:00
9:53 PM,50.0,34.0,54,29.94,10.0,ESE,6.9,-,N/A,,Clear,110,2013-03-28 03:53:00
10:53 PM,48.9,34.0,56,29.93,10.0,ESE,6.9,-,N/A,,Clear,120,2013-03-28 04:53:00
11:53 PM,48.9,33.1,54,29.93,10.0,SE,8.1,-,N/A,,Clear,130,2013-03-28 05:53:00